This is the latest recevied weather packets stored in our database for station/object KI7YRV. If no packets are shown the sender has not sent any weather packets the latest 10 day(s).
| Time | Temp. | Humidity | Pressure | Rain* | Wind** | Luminosity | Snow |
|---|---|---|---|---|---|---|---|
| 1777900245 | 8.33° C | 54% | 1012 hPa | 0 mm | - | - | - |
| 1777894232 | 7.22° C | 53% | 1011.4 hPa | 0 mm | - | - | - |
| 1777890623 | 5° C | 62% | 1011.7 hPa | 0 mm | - | - | - |
| 1777886417 | 6.67° C | 58% | 1011.5 hPa | 0 mm | - | - | - |
| 1777884630 | 7.22° C | 57% | 1011.8 hPa | 0 mm | - | - | - |
| 1777871420 | 11.11° C | 45% | 1013.2 hPa | 0 mm | - | - | - |
| 1777869020 | 12.22° C | 43% | 1013 hPa | 0 mm | - | - | - |
| 1777867215 | 12.78° C | 42% | 1012.9 hPa | 0 mm | - | - | - |
| 1777865427 | 12.78° C | 41% | 1012.6 hPa | 0 mm | - | - | - |
| 1777858844 | 18.89° C | 31% | 1011.8 hPa | 0 mm | - | - | - |
| 1777857632 | 20.56° C | 28% | 1011.8 hPa | 0 mm | - | - | - |
| 1777855828 | 22.22° C | 25% | 1012 hPa | 0 mm | - | - | - |
| 1777853448 | 22.22° C | 25% | 1012.1 hPa | 0 mm | - | - | - |
| 1777844421 | 22.78° C | 22% | 1013.8 hPa | 0 mm | - | - | - |
| 1777842021 | 22.78° C | 21% | 1014.3 hPa | 0 mm | - | - | - |
| 1777839024 | 22.78° C | 21% | 1015 hPa | 0 mm | - | - | - |
| 1777833031 | 21.67° C | 25% | 1016.9 hPa | 0 mm | - | - | - |
| 1777830651 | 20.56° C | 30% | 1017.6 hPa | 0 mm | - | - | - |
| 1777825829 | 16.67° C | 37% | 1018.4 hPa | 0 mm | - | - | - |
| 1777822219 | 15° C | 43% | 1018.9 hPa | 0 mm | - | - | - |
| 1777820420 | 13.89° C | 47% | 1018.9 hPa | 0 mm | - | - | - |
| 1777818615 | 12.22° C | 50% | 1019.2 hPa | 0 mm | - | - | - |
| 1777811425 | 4.44° C | 68% | 1018.6 hPa | 0 mm | - | - | - |
| 1777810830 | 4.44° C | 68% | 1018.5 hPa | 0 mm | - | - | - |
| 1777809621 | 3.89° C | 68% | 1018.4 hPa | 0 mm | - | - | - |
* Rain latest hour (hover to see other rain measurements)
** Current wind speed in m/s (hover to see current wind gust speed)